Theta_e
327 330 328 334 335 337 336 335 334 333 331 325 324 325 328 325 321 327 328 326 325 326 325 324 328 330 330 330 329 328 325 318 314 312 311 310 318 327 327 324 326 327 326
326 328 329 329 333 333 334 335 332 332 329 321 324 328 328 327 327 322 326 328 326 326 326 327 328 329 328 328 327 323 320 317 313 312 316 312 320 325 320 323 327 326 328
324 326 326 326 331 336 336 335 334 331 328 322 326 328 329 327 328 325 328 327 328 326 326 328 327 328 326 328 329 326 315 315 313 315 318 320 322 318 319 317 326 326 325
323 324 325 324 333 336 335 335 333 330 324 321 323 329 329 329 327 328 326 323 327 327 326 316 326 327 324 329 328 326 314 313 314 316 320 321 319 317 312 311 314 318 324
321 325 324 325 332 336 333 333 330 326 318 319 326 330 330 329 328 327 323 320 319 319 315 314 321 320 321 322 323 325 315 313 316 317 320 320 318 315 309 308 308 310 311
322 326 327 329 332 333 332 330 329 322 317 319 328 326 331 330 328 328 323 318 316 314 312 310 313 313 312 319 318 322 312 313 316 318 318 320 319 315 308 309 309 308 308
323 327 328 329 328 330 329 330 328 321 318 318 330 329 329 328 328 326 321 320 318 315 313 310 308 309 312 309 309 311 311 311 313 314 318 319 314 309 309 309 309 309 308
325 326 328 329 330 331 330 328 327 321 318 316 322 325 329 329 328 327 323 321 319 317 316 313 311 309 308 308 308 309 309 311 315 316 318 320 317 311 309 309 309 309 309
326 326 328 329 330 331 329 329 328 326 319 315 321 324 323 326 325 322 320 319 320 318 317 316 314 312 310 307 307 308 309 310 314 317 318 318 316 312 309 309 309 309 309
327 326 327 328 328 327 323 324 324 321 315 311 319 315 312 315 318 315 313 315 315 313 314 316 315 314 313 310 308 307 309 309 311 315 316 316 315 313 312 310 309 309 309
327 326 326 325 326 325 321 321 320 314 310 310 312 312 312 313 312 312 311 313 314 312 312 313 314 314 314 313 309 308 308 309 309 310 314 314 315 312 311 314 309 309 309
326 325 326 325 325 325 323 320 316 313 311 311 313 313 313 313 313 312 312 314 314 313 313 312 313 313 313 312 310 307 307 308 309 309 311 313 313 312 312 316 313 310 309
325 325 325 325 324 325 324 323 318 316 315 313 312 313 313 313 314 315 315 316 317 317 316 315 314 314 312 311 311 308 306 308 309 309 309 309 310 311 312 316 320 312 310
323 325 325 324 324 323 324 324 322 318 316 316 315 314 314 315 316 317 318 319 319 319 319 318 317 317 315 313 312 310 307 307 309 309 309 308 308 310 311 312 323 322 314
324 324 325 325 324 323 323 324 323 321 318 316 317 316 318 318 319 320 320 320 320 321 321 321 320 320 319 318 315 313 311 308 307 309 309 309 308 308 310 312 322 324 324
326 326 326 325 325 326 324 323 323 324 321 318 317 318 319 320 320 321 321 322 322 322 322 322 322 322 321 321 320 318 316 315 312 309 309 310 311 310 308 310 312 322 324
326 326 327 327 327 327 327 326 324 322 321 320 319 320 319 319 320 321 322 322 323 323 323 323 323 323 323 323 323 322 321 320 319 316 313 311 311 311 311 311 311 311 313
323 324 325 327 328 328 328 327 327 325 323 321 320 320 321 323 323 324 324 325 325 325 325 325 324 324 324 324 324 324 324 324 324 323 321 319 317 315 314 313 312 311 310
320 321 322 323 326 328 328 328 327 327 326 325 324 324 323 324 326 328 328 329 330 330 330 329 329 328 327 327 326 326 326 326 326 325 325 324 323 322 321 320 318 316 316
318 318 320 322 324 326 328 328 328 328 328 327 327 327 327 328 329 330 331 331 332 331 331 331 331 330 330 329 328 328 328 328 328 327 327 326 326 326 325 325 323 322 321
318 318 319 320 321 322 325 328 328 328 328 328 328 328 329 329 331 332 332 332 331 331 331 331 331 331 330 330 329 327 327 326 326 326 326 326 326 326 325 322 321 322 322
318 318 319 319 319 320 322 326 327 328 328 328 329 330 331 331 332 332 331 330 330 330 330 330 329 330 330 330 328 326 324 325 325 325 325 325 326 326 325 324 325 323 320
317 317 317 318 319 320 322 325 327 328 329 330 329 327 327 326 326 326 326 326 327 327 327 328 328 329 328 328 329 328 326 326 326 325 325 325 326 325 325 326 326 325 326
317 316 316 317 317 317 317 319 320 321 321 319 318 318 319 321 322 321 321 321 322 323 324 325 325 326 327 328 328 328 328 328 326 327 326 326 326 326 326 326 325 325 324
316 316 315 315 315 315 315 315 315 315 315 315 315 315 315 315 314 314 314 313 313 313 314 315 316 318 322 326 326 327 327 327 326 326 324 324 324 326 326 326 325 326 326
316 315 315 315 315 315 314 314 314 314 314 314 313 313 313 313 313 312 312 311 310 309 308 308 309 311 312 313 314 316 317 318 321 323 325 325 325 325 324 325 324 325 326
Wind_Speed
6 6 12 18 14 12 12 10 7 7 8 8 3 3 3 4 6 5 5 6 4 4 10 8 11 7 7 7 6 7 9 7 4 3 1 4 6 7 7 5 2 3 4
1 5 10 16 15 15 12 9 7 7 7 6 3 4 2 3 1 4 2 3 4 3 4 6 8 8 8 7 7 6 7 7 6 5 1 4 5 5 6 5 4 4 4
2 3 9 14 13 13 12 9 9 8 7 6 5 4 3 5 5 5 7 3 4 5 3 5 6 8 5 5 8 9 6 8 8 6 4 3 3 3 4 5 5 4 5
2 3 7 12 14 15 13 10 9 8 8 7 8 5 6 6 4 6 5 9 5 5 7 7 6 8 10 7 8 9 9 11 10 7 6 5 3 3 4 5 7 8 8
2 2 5 10 15 16 11 9 9 8 8 7 8 6 8 7 8 8 7 9 10 9 6 5 8 10 10 11 12 10 11 12 11 9 6 6 5 5 5 6 7 7 9
2 2 4 8 12 12 11 9 8 8 6 9 4 6 8 9 7 9 8 6 5 7 6 5 8 8 6 13 12 10 12 15 14 13 10 8 8 8 8 7 7 7 7
2 3 3 6 9 10 10 10 9 9 8 10 8 11 10 11 9 12 8 7 7 7 6 7 7 10 12 10 10 10 12 15 15 15 14 10 8 8 9 9 8 7 6
2 3 3 4 7 9 10 10 9 8 8 10 12 12 14 10 14 15 14 11 8 7 7 8 9 10 12 12 11 11 13 16 16 15 14 15 12 11 12 11 10 9 8
4 4 3 4 6 9 11 12 11 11 10 10 9 10 13 14 16 14 14 12 10 8 9 9 11 11 12 13 13 13 14 17 19 18 17 16 15 13 15 14 13 11 11
7 5 4 5 7 8 10 11 11 12 12 10 10 10 8 13 16 13 12 11 10 10 10 11 12 13 13 14 14 15 16 18 21 21 19 19 18 16 17 17 15 15 14
11 8 7 6 8 8 8 9 11 11 11 10 10 9 9 9 9 10 10 10 10 11 12 14 15 15 16 16 15 16 17 20 22 24 23 22 21 21 20 20 19 18 18
12 10 9 9 9 9 9 8 9 10 10 10 10 10 10 10 10 10 9 9 10 10 11 13 15 16 18 17 17 18 20 21 23 24 26 25 25 24 24 23 24 22 22
13 13 13 12 11 12 11 9 9 9 10 9 10 10 10 10 10 10 10 10 11 12 13 14 15 16 17 18 19 20 21 23 24 26 27 29 29 28 28 27 27 27 26
18 17 16 16 16 15 14 13 11 12 11 11 10 11 12 12 12 11 11 12 14 14 16 16 17 18 19 20 20 21 23 24 25 27 29 30 32 32 32 31 30 31 30
22 20 20 19 19 18 19 18 16 14 13 12 13 14 14 14 15 16 17 18 18 19 19 20 21 22 22 22 22 24 24 25 28 29 31 31 33 36 36 36 33 32 33
21 21 21 22 21 21 21 21 20 17 14 15 16 15 16 17 19 20 22 23 23 23 23 25 26 27 28 27 27 26 28 28 29 31 33 34 35 37 39 39 39 36 35
18 17 19 21 22 22 20 20 21 20 19 18 18 17 18 20 22 22 24 26 27 28 29 30 31 32 33 33 34 32 31 32 33 34 34 36 37 38 41 42 43 43 42
19 21 20 21 22 21 21 20 19 20 21 21 21 20 21 22 24 26 27 29 30 31 32 33 34 36 38 38 38 38 38 37 37 37 37 38 40 40 40 42 45 46 47
13 15 17 20 22 20 21 22 20 21 21 21 21 22 23 24 26 27 29 30 31 32 34 35 36 37 39 41 41 41 41 41 41 41 42 42 43 43 43 44 45 46 47
10 11 11 10 14 17 19 22 23 23 22 22 22 24 25 26 26 28 29 30 30 32 33 34 35 35 37 38 40 42 43 44 44 43 43 45 46 46 45 46 47 48 47
11 8 7 8 8 8 12 20 23 25 25 24 25 27 27 26 26 28 30 29 28 30 30 32 34 35 35 34 37 38 39 41 42 43 41 40 40 39 37 36 37 40 44
16 15 12 10 9 8 4 6 14 19 21 20 21 20 19 21 24 26 26 27 28 30 30 30 32 35 36 30 35 34 28 32 35 36 36 36 35 32 31 33 36 36 32
17 18 17 16 13 12 10 7 4 7 9 12 13 14 15 16 17 18 20 21 22 24 27 27 28 30 35 34 37 35 20 19 30 36 39 40 41 40 39 40 39 39 38
17 16 14 13 14 14 12 9 7 7 7 8 10 10 10 10 11 12 14 16 17 19 21 21 22 25 29 34 33 36 38 40 28 31 32 33 40 42 46 46 44 42 42
13 12 12 11 12 13 13 13 12 11 11 9 8 8 9 9 11 13 14 16 18 19 20 21 23 23 25 30 33 37 37 39 42 41 36 32 34 41 45 45 44 46 46
9 8 9 10 11 10 10 10 10 10 9 9 11 13 15 17 19 20 21 21 22 23 24 24 24 25 26 27 28 29 30 32 33 33 33 35 35 37 44 47 46 46 46
Wind_Direction
212 184 185 192 200 196 218 232 241 263 279 297 270 169 198 211 224 194 218 229 284 238 226 209 178 213 224 252 247 254 241 252 261 256 248 203 161 155 167 120 84 72 63
226 196 189 192 201 211 218 220 245 266 277 290 190 187 165 260 285 215 225 230 262 267 188 182 186 206 227 242 250 305 236 234 241 241 233 157 150 196 179 139 78 76 85
283 201 186 190 194 203 215 228 248 262 273 280 175 194 224 271 229 230 199 213 212 255 212 172 203 199 212 217 246 274 242 233 236 235 227 188 172 236 194 180 155 170 203
276 221 191 189 193 207 222 235 249 270 267 256 197 166 225 267 227 233 234 216 213 226 238 211 184 208 215 194 231 256 228 231 231 238 226 216 221 229 243 222 217 217 227
255 212 191 193 198 217 240 244 258 258 268 211 161 205 233 249 262 252 251 261 244 246 279 220 195 223 212 204 223 254 224 226 230 243 235 221 224 246 246 234 237 237 244
229 196 193 205 215 222 240 250 260 263 245 197 184 200 225 245 252 248 272 289 281 265 271 266 233 240 250 232 241 253 221 222 229 241 242 232 227 245 239 238 239 240 242
236 203 200 212 221 231 246 251 264 262 257 210 198 209 223 247 240 257 288 287 279 273 276 279 271 261 261 267 273 249 225 226 231 240 241 236 221 239 240 242 242 242 242
252 235 222 216 235 254 261 258 267 278 271 230 216 216 220 223 235 261 291 288 277 265 279 278 280 278 273 271 271 259 235 228 233 239 240 238 239 244 245 247 247 245 243
231 248 258 253 260 266 266 260 266 280 279 265 238 238 230 231 247 262 274 280 283 280 288 284 283 280 276 274 265 257 244 236 239 240 243 242 241 241 246 248 250 250 249
235 248 264 270 274 281 270 259 267 278 283 273 243 257 253 244 254 267 277 281 285 289 291 290 288 284 280 273 268 260 250 243 244 243 245 248 245 245 247 250 252 252 253
237 243 246 263 270 278 270 263 265 273 276 270 261 263 261 265 274 277 285 276 285 291 293 291 288 286 283 281 275 265 255 247 247 249 249 250 251 251 249 248 253 254 255
243 253 248 255 264 266 267 266 266 267 267 265 260 262 264 270 276 277 281 279 286 295 298 296 295 294 287 285 279 270 260 253 250 251 252 252 254 254 252 248 254 254 255
259 254 254 257 261 261 265 270 265 263 257 257 254 259 265 268 272 280 284 288 292 297 302 301 299 301 299 290 282 274 267 260 255 254 254 254 254 254 252 252 252 256 255
261 260 259 260 261 264 264 262 266 258 261 261 262 260 264 268 270 276 284 287 290 294 297 298 300 297 296 293 288 280 272 267 262 259 258 256 254 254 254 254 253 255 257
265 267 267 267 267 267 267 264 264 264 266 270 270 264 264 270 273 274 277 281 286 291 293 298 300 299 296 295 290 285 280 274 269 264 263 260 259 256 257 258 255 255 257
276 275 270 269 270 267 268 269 269 268 272 270 269 273 274 278 281 282 285 287 289 292 294 296 297 295 293 290 289 287 285 282 278 272 269 267 262 261 259 259 259 255 255
280 278 271 269 267 268 273 276 275 276 271 272 276 278 281 283 286 289 290 289 291 294 296 296 295 294 292 292 290 290 288 286 283 280 275 273 270 264 263 262 263 262 259
281 274 270 265 266 269 270 277 281 282 281 281 282 285 285 286 289 292 294 297 300 298 298 296 296 293 292 291 291 291 289 287 286 283 281 277 274 273 270 267 265 265 265
292 291 283 267 260 264 271 274 280 283 281 285 288 291 294 292 293 295 299 303 302 299 297 296 294 293 293 293 293 292 291 289 287 285 282 280 279 277 276 274 271 268 267
318 313 319 308 273 265 261 263 268 273 276 280 287 291 294 297 299 299 300 303 302 299 297 297 296 295 293 292 292 292 292 292 292 286 283 282 280 280 279 277 276 274 271
46 28 352 351 341 326 289 271 270 273 276 280 286 291 295 295 295 296 296 297 299 297 298 299 299 298 297 298 295 295 295 293 293 292 293 292 289 287 288 284 282 277 275
62 58 54 41 27 20 1 281 269 274 278 287 291 296 294 290 291 292 293 295 296 296 296 297 299 300 298 301 293 292 289 294 294 296 297 294 293 291 284 285 289 287 286
63 54 47 40 32 25 24 21 330 292 292 292 297 301 304 305 302 300 299 300 301 302 299 300 303 302 299 297 294 285 280 281 292 292 293 290 288 288 285 287 287 288 289
67 58 49 44 42 43 36 25 22 25 19 15 353 344 334 323 320 319 318 317 316 319 316 309 305 305 305 303 303 297 294 286 280 287 284 283 287 281 283 284 284 284 288
71 61 55 47 48 46 43 46 47 50 50 39 25 7 2 354 341 335 333 331 328 327 324 319 314 310 303 300 296 294 289 287 285 276 282 283 280 283 287 285 285 285 286
77 60 42 32 40 39 35 37 33 28 20 2 353 344 338 332 328 325 322 321 319 317 316 315 311 307 306 304 302 300 297 299 294 295 286 283 284 284 290 285 285 288 288